Location: Home
(42.5358°N, 72.7383°W)
Time: 10:08:47
(UTC-05:00)

Transit 4A - Pass Details

Date: 02 December 2021
Orbit: 864 x 981 km, 66.8° (Epoch: 21 January)

Event Time Altitude Azimuth Distance (km) Brightness Sun altitude
Exits shadow 04:55:46 42° 305° (NW) 1,341 8.3 -22.7°
Maximum altitude 04:57:47 63° 244° (WSW) 1,074 7.9 -22.3°
Drops below altitude 10° 05:04:04 10° 165° (SSE) 2,719 10.6 -21.2°
Sets 05:06:39 0° 162° (SSE) 3,667 11.4 -20.7°
